Location: Bayou Vista
(29.6905°N, 91.2709°W)
Time: 03:32:37
(UTC+00:00)

Transit 4A - Pass Details

Date: 16 August 2024
Orbit: 867 x 976 km, 66.8° (Epoch: 09 September)

Event Time Altitude Azimuth Distance (km) Brightness Sun altitude
Rises 02:45:30 0° 313° (NW) 3,600 12.3 -24.5°
Reaches altitude 10° 02:48:56 10° 294° (WNW) 2,672 11.3 -25.1°
Maximum altitude 02:52:45 17° 256° (WSW) 2,217 10.3 -25.8°
Drops below altitude 10° 02:56:37 10° 218° (SW) 2,698 10.3 -26.5°
Enters shadow 02:59:03 - 203° (SSW) 3,328 10.7 -26.9°
